This demonstration page uses our WeatherBlox Daily Observations layout. Learn more.

Left ArrowRight Arrow

53.62937, 11.41316

Hourly Observations for June 5, 2019

Temp ( °F °C ) Dew Point ( °F °C ) Humidity (%) Winds ( mph kmh ) Pressure ( in mb ) Visibility ( mi km ) Precip ( " mm )
6:50 am 06:50 Mostly Sunny 68 20 61 16 78 78 SSE 6 9 29.74 1007 30 48 N/A
7:20 am 07:20 Mostly Sunny 70 21 61 16 73 73 S 7 11 29.74 1007 7 11 N/A
7:50 am 07:50 Mostly Sunny 70 21 61 16 73 73 S 5 7 29.77 1008 7 11 N/A
8:20 am 08:20 Mostly Sunny 73 23 63 17 69 69 SSE 6 9 29.76 1008 7 11 N/A
8:50 am 08:50 Mostly Sunny 72 22 61 16 69 69 S 3 6 29.76 1008 7 11 N/A
9:20 am 09:20 Mostly Sunny 73 23 61 16 65 65 SW 3 6 29.76 1008 7 11 N/A
9:50 am 09:50 Mostly Sunny 75 24 61 16 61 61 WSW 6 9 29.76 1008 7 11 N/A
10:20 am 10:20 Mostly Sunny 77 25 64 18 65 65 SW 5 7 29.76 1008 7 11 N/A
10:50 am 10:50 Mostly Sunny 79 26 63 17 58 58 VRB 3 6 29.79 1009 7 11 N/A
11:20 am 11:20 Mostly Sunny 81 27 64 18 58 58 VRB 3 6 29.79 1009 7 11 N/A
11:50 am 11:50 Mostly Sunny 81 27 63 17 54 54 VRB 3 6 29.79 1009 7 11 N/A
12:20 pm 12:20 Mostly Sunny 81 27 63 17 54 54 VRB 3 6 29.79 1009 7 11 N/A
12:50 pm 12:50 Mostly Sunny 81 27 61 16 51 51 VRB 3 6 29.79 1009 7 11 N/A
1:20 pm 13:20 Mostly Sunny 82 28 61 16 48 48 N 3 6 29.79 1009 7 11 N/A
1:50 pm 13:50 Mostly Sunny 84 29 63 17 48 48 N 6 9 29.76 1008 7 11 N/A
2:20 pm 14:20 Mostly Sunny 84 29 63 17 48 48 E 9 15 29.76 1008 7 11 N/A
2:50 pm 14:50 Mostly Sunny 84 29 63 17 48 48 ENE 9 15 29.76 1008 7 11 N/A
3:20 pm 15:20 Mostly Sunny 82 28 63 17 51 51 N 12 19 29.76 1008 7 11 N/A
3:50 pm 15:50 Mostly Sunny 81 27 63 17 54 54 NNE 12 19 29.76 1008 7 11 N/A
4:20 pm 16:20 Mostly Sunny 81 27 63 17 54 54 NNE 12 19 29.76 1008 7 11 N/A
4:50 pm 16:50 Mostly Sunny 81 27 64 18 58 58 NNE 13 20 29.76 1008 7 11 N/A
5:20 pm 17:20 Mostly Sunny 79 26 63 17 58 58 NNE 13 20 29.76 1008 7 11 N/A
5:50 pm 17:50 Mostly Sunny 77 25 63 17 61 61 ENE 12 19 29.76 1008 7 11 N/A
6:20 pm 18:20 Partly Cloudy with Light Showers 75 24 64 18 69 69 NE 8 13 29.79 1009 30 48 N/A
6:50 pm 18:50 Partly Cloudy with Light Showers 73 23 64 18 74 74 VRB 6 9 29.76 1008 30 48 N/A
7:20 pm 19:20 Partly Cloudy with Light Showers 72 22 66 19 83 83 ESE 6 9 29.76 1008 30 48 N/A
7:50 pm 19:50 Partly Cloudy with Thunderstorms 72 22 61 16 69 69 E 14 22 29.76 1008 30 48 N/A
8:20 pm 20:20 Partly Cloudy with Light Showers 77 25 55 13 47 47 ENE 18 30 29.73 1007 30 48 N/A
8:50 pm 20:50 Partly Cloudy with Showers Nearby 73 23 57 14 57 57 ENE 3 6 29.71 1006 30 48 N/A

Powered by AerisWeather